Voltar ao catálogo

CZ-6A DEB

AtivoPO
NORAD 60768·DEBRIS·🇨🇳 China

Lançado Aug 6, 2024 de Taiyuan Satellite Launch Center

Loading…

Próximas Passagens (próximas 24 horas)

TLE

AtualizadoSource: Space-Track

Época: Sep 14, 2026, 18:18 UTC

1 60768U 24140ET  26257.76270396  .00002531  00000-0  50528-3 0  9994
2 60768  89.0866 267.9959 0109761 316.1967  43.0576 14.57887554111046

Acompanhe CZ-6A DEB em tempo real com AllMySat

Download on the App Store